FW8396 Weather Reports


Display with metric or nautical units.
time (UTC)temp
F
wind
direction
speed
MPH
gust
MPH
rain 1hr
in
rain 24hr
in
rain mn
in
humidity
%
barometer
mb
20260510111527 75 0 1.0 7.0 0.00 0.49 0.00 90 1013.5
20260510110031 75 160 0.0 3.0 0.00 0.49 0.00 90 1013.3
20260510104529 74 0 1.0 8.0 0.00 0.49 0.00 90 1013.2
20260510103031 74 0 0.0 6.0 0.00 0.49 0.00 89 1013.0
20260510101528 75 134 2.0 9.0 0.00 0.49 0.00 90 1012.9
20260510100028 75 148 1.0 4.0 0.00 0.49 0.00 90 1012.8
20260510094537 75 129 1.0 7.0 0.00 0.49 0.00 90 1012.6
20260510093030 75 163 1.0 8.0 0.00 0.49 0.00 90 1012.6
20260510091532 75 169 1.0 7.0 0.00 0.49 0.00 90 1012.7
20260510090028 75 94 1.0 6.0 0.00 0.49 0.00 90 1012.7
20260510084530 75 149 0.0 3.0 0.00 0.49 0.00 90 1012.7
20260510083030 75 0 0.0 5.0 0.00 0.49 0.00 90 1012.9
20260510081530 75 0 0.0 4.0 0.00 0.49 0.00 90 1012.9
20260510080032 74 144 2.0 6.0 0.00 0.49 0.00 89 1012.7
20260510074534 74 0 1.0 5.0 0.00 0.49 0.00 89 1012.7
20260510073028 75 107 2.0 7.0 0.00 0.49 0.00 89 1012.6
20260510071530 75 155 1.0 7.0 0.00 0.49 0.00 89 1012.7
20260510070028 75 0 1.0 4.0 0.00 0.49 0.00 89 1012.8
20260510064532 75 144 1.0 10.0 0.00 0.49 0.00 89 1012.7
20260510063029 75 138 1.0 5.0 0.00 0.49 0.00 89 1012.8
20260510061536 75 181 1.0 7.0 0.00 0.49 0.00 89 1012.8
20260510060044 75 143 0.0 5.0 0.00 0.49 0.00 88 1012.9
20260510054530 76 152 2.0 8.0 0.00 0.49 0.00 88 1013.0
20260510053031 76 93 2.0 7.0 0.00 0.49 0.00 88 1013.1
20260510051530 76 110 3.0 10.0 0.00 0.49 0.00 88 1013.3
20260510050029 77 131 4.0 13.0 0.00 0.49 0.00 88 1013.3
20260510044534 77 113 3.0 8.0 0.00 0.49 0.49 88 1013.4
20260510043030 76 99 2.0 7.0 0.00 0.49 0.49 87 1013.6
20260510041531 76 84 2.0 7.0 0.00 0.49 0.49 87 1013.9
20260510040030 76 98 2.0 7.0 0.00 0.49 0.49 87 1013.8
20260510034530 76 78 2.0 7.0 0.00 0.49 0.49 88 1013.5
20260510033028 76 63 2.0 7.0 0.00 0.49 0.49 88 1013.9
20260510031551 77 111 3.0 10.0 0.00 0.49 0.49 88 1013.7
20260510030030 77 116 2.0 12.0 0.00 0.49 0.49 87 1013.7
20260510024535 78 141 4.0 14.0 0.00 0.49 0.49 87 1013.4
20260510023042 77 0 4.0 12.0 0.00 0.49 0.49 83 1012.9
20260510021530 75 85 1.0 8.0 0.00 0.49 0.49 83 1012.6
20260510020028 74 0 0.0 10.0 0.00 0.49 0.49 86 1012.2
20260510014532 74 154 0.0 3.0 0.00 0.49 0.49 91 1011.6
20260510013027 75 0 0.0 1.0 0.01 0.49 0.49 91 1011.4
20260510011530 75 0 0.0 2.0 0.09 0.49 0.49 90 1010.7
20260510010032 75 0 0.0 1.0 0.26 0.49 0.49 90 1010.5
20260510004532 75 0 0.0 3.0 0.34 0.49 0.49 88 1010.1
20260510003028 75 59 0.0 5.0 0.36 0.47 0.47 88 1010.3
20260510001530 76 0 0.0 3.0 0.40 0.40 0.40 87 1010.6
20260510000029 77 0 1.0 9.0 0.22 0.22 0.22 84 1010.2
20260509234535 78 38 1.0 4.0 0.15 0.15 0.15 83 1010.3
20260509233031 83 242 3.0 11.0 0.10 0.10 0.10 75 1010.0
20260509231530 89 112 1.0 6.0 0.00 0.00 0.00 61 1009.6
20260509230030 90 84 0.0 6.0 0.00 0.00 0.00 60 1009.5
20260509224528 90 0 0.0 4.0 0.00 0.00 0.00 58 1009.3
20260509223029 91 0 0.0 3.0 0.00 0.00 0.00 57 1009.3
20260509221532 92 262 0.0 2.0 0.00 0.00 0.00 55 1009.3
20260509220030 92 0 0.0 4.0 0.00 0.00 0.00 55 1009.3
20260509214530 92 348 2.0 5.0 0.00 0.00 0.00 57 1009.3
20260509213028 91 61 1.0 4.0 0.00 0.00 0.00 57 1009.2
20260509211549 91 0 1.0 4.0 0.00 0.00 0.00 58 1009.2
20260509210028 92 273 1.0 5.0 0.00 0.00 0.00 57 1009.4
20260509204528 92 82 0.0 4.0 0.00 0.00 0.00 57 1009.6
20260509203039 92 282 2.0 9.0 0.00 0.00 0.00 57 1009.6
20260509201528 91 290 1.0 7.0 0.00 0.00 0.00 57 1009.6
20260509200031 92 317 2.0 6.0 0.00 0.00 0.00 58 1009.8
20260509194530 91 302 1.0 8.0 0.00 0.00 0.00 58 1010.0
20260509193033 91 290 1.0 6.0 0.00 0.00 0.00 57 1010.0
20260509191529 90 222 1.0 5.0 0.00 0.00 0.00 59 1010.2
20260509190036 89 298 1.0 7.0 0.00 0.00 0.00 61 1010.2
20260509184527 89 169 1.0 7.0 0.00 0.04 0.00 65 1010.3
20260509183030 88 0 2.0 7.0 0.00 0.04 0.00 67 1010.6
20260509181529 87 282 1.0 6.0 0.00 0.04 0.00 66 1010.9
20260509180031 86 274 2.0 7.0 0.00 0.04 0.00 71 1011.5
20260509174531 85 167 1.0 6.0 0.00 0.05 0.00 74 1011.7
20260509173030 83 165 2.0 9.0 0.00 0.05 0.00 78 1011.7
20260509171528 82 0 1.0 6.0 0.00 0.05 0.00 79 1012.2
20260509170031 81 175 1.0 5.0 0.00 0.05 0.00 80 1012.3
20260509164528 81 0 0.0 4.0 0.00 0.06 0.00 80 1012.2
20260509163040 81 0 0.0 4.0 0.00 0.06 0.00 81 1012.2
20260509161530 80 0 0.0 2.0 0.00 0.06 0.00 81 1012.2
20260509160030 80 161 0.0 3.0 0.00 0.06 0.00 82 1012.1
20260509154529 80 0 1.0 3.0 0.00 0.06 0.00 83 1012.0
20260509153030 79 0 0.0 3.0 0.00 0.06 0.00 85 1012.0
20260509151530 78 0 0.0 1.0 0.00 0.06 0.00 87 1012.3
20260509150029 77 198 0.0 2.0 0.00 0.06 0.00 89 1012.3
20260509144528 76 0 0.0 2.0 0.00 0.06 0.00 90 1012.0
20260509143030 76 0 0.0 2.0 0.00 0.06 0.00 90 1011.8
20260509141530 76 0 0.0 4.0 0.00 0.06 0.00 92 1011.3
20260509140030 76 161 0.0 2.0 0.00 0.06 0.00 92 1011.3
20260509134528 76 173 0.0 4.0 0.00 0.06 0.00 93 1011.5
20260509133029 75 178 1.0 4.0 0.00 0.06 0.00 93 1012.2
20260509131533 75 180 0.0 2.0 0.00 0.06 0.00 94 1012.2
20260509130030 75 0 0.0 3.0 0.00 0.06 0.00 94 1012.3
20260509124527 74 0 0.0 1.0 0.00 0.06 0.00 94 1012.0
20260509123028 73 0 0.0 1.0 0.00 0.06 0.00 94 1012.0
20260509121537 73 0 0.0 1.0 0.00 0.06 0.00 94 1012.0
20260509120033 73 0 0.0 2.0 0.00 0.06 0.00 93 1011.6
20260509114531 73 0 0.0 1.0 0.00 0.06 0.00 93 1011.7
20260509113030 74 0 0.0 1.0 0.00 0.06 0.00 93 1012.3